Location: Newark
(43.9494°N, 6.8108°E)
Time: 22:08:45
(UTC+00:00)

Vanguard 1 - All Passes

Search period start: 20 October 2019 00:00
Search period end: 30 October 2019 00:00
Orbit: 653 x 3830 km, 34.2° (Epoch: 20 October)

Date Brightness Start Highest point End Pass type
(mag) Time Alt. Az. Time Alt. Az. Time Alt. Az.
20 Oct - 01:01:58 10° W 01:16:39 30° SW 01:34:38 10° SSE visible
20 Oct - 16:06:37 10° SSE 16:09:45 13° SE 16:13:33 10° ESE daylight
20 Oct - 18:21:04 10° SW 18:28:37 43° SSE 18:41:58 10° E visible
20 Oct - 20:39:41 10° WSW 20:50:15 57° S 21:09:03 10° ESE visible
20 Oct - 23:00:09 10° W 23:13:48 45° SSW 23:34:15 10° SE visible
21 Oct - 01:24:18 10° W 01:37:34 23° SW 01:53:15 10° S visible
21 Oct - 16:25:23 10° S 16:29:59 19° SE 16:36:22 10° E daylight
21 Oct - 18:41:34 10° SW 18:49:24 48° SSE 19:03:31 10° E visible
21 Oct - 21:00:33 10° W 21:11:22 55° S 21:30:20 10° ESE visible
21 Oct - 23:21:25 10° W 23:34:56 39° SSW 23:54:29 10° SSE visible
22 Oct - 01:47:39 10° WSW 01:58:25 17° SW 02:10:38 10° S visible
22 Oct - 16:45:01 10° SSW 16:50:21 25° SE 16:58:24 10° E daylight
22 Oct - 19:02:10 10° WSW 19:10:16 51° SSE 19:25:02 10° E visible
22 Oct - 21:21:29 10° W 21:32:30 51° S 21:51:25 10° SE visible
22 Oct - 23:42:55 10° W 23:56:02 33° SSW 00:14:17 10° SSE visible
23 Oct - 02:14:00 10° WSW 02:19:15 11° SW 02:24:48 10° SSW visible
23 Oct - 17:05:04 10° SSW 17:10:50 31° SSE 17:20:07 10° E visible
23 Oct - 19:22:53 10° WSW 19:31:12 52° S 19:46:28 10° ESE visible
23 Oct - 21:42:28 10° W 21:53:39 46° SSW 22:12:16 10° SE visible
24 Oct - 00:04:45 10° W 00:17:05 27° SW 00:33:28 10° SSE visible
24 Oct - 17:25:23 10° SW 17:31:27 37° SSE 17:41:40 10° E visible
24 Oct - 19:43:39 10° WSW 19:52:13 52° S 20:07:49 10° ESE visible
24 Oct - 22:03:35 10° W 22:14:47 41° SSW 22:32:49 10° SE visible
25 Oct - 00:27:12 10° WSW 00:38:06 21° SW 00:51:50 10° S visible
25 Oct - 15:30:05 10° S 15:33:11 15° SE 15:36:59 10° ESE daylight
25 Oct - 17:45:51 10° SW 17:52:10 42° SSE 18:03:08 10° E visible
25 Oct - 20:04:29 10° WSW 20:13:15 50° S 20:29:02 10° ESE visible
25 Oct - 22:24:50 10° W 22:35:54 35° SSW 22:52:59 10° SSE visible
26 Oct - 00:50:57 10° WSW 00:59:07 15° SW 01:08:38 10° SSW visible
26 Oct - 15:49:32 10° SSW 15:53:35 20° SE 15:59:07 10° ESE daylight
26 Oct - 18:06:27 10° WSW 18:13:00 45° S 18:24:32 10° ESE visible
26 Oct - 20:25:23 10° W 20:34:19 46° S 20:50:04 10° SE visible
26 Oct - 22:46:21 10° W 22:57:02 29° SSW 23:12:40 10° SSE visible
27 Oct - 16:09:31 10° SSW 16:14:06 26° SSE 16:20:47 10° E daylight
27 Oct - 18:27:09 10° WSW 18:33:53 47° S 18:45:51 10° ESE visible
27 Oct - 20:46:23 10° W 20:55:24 41° SSW 21:10:50 10° SE visible
27 Oct - 23:08:18 10° WSW 23:18:08 23° SSW 23:31:40 10° S visible
28 Oct - 16:29:48 10° SW 16:34:42 32° SSE 16:42:14 10° E daylight
28 Oct - 18:47:55 10° WSW 18:54:48 46° S 19:07:06 10° ESE visible
28 Oct - 21:07:29 10° W 21:16:29 35° SSW 21:31:17 10° SE visible
28 Oct - 23:31:04 10° WSW 23:39:14 17° SW 23:49:36 10° S night (unlit)
29 Oct - 14:35:00 10° SSE 14:36:33 11° SE 14:38:16 10° SE daylight
29 Oct - 16:50:17 10° SW 16:55:24 36° SSE 17:03:35 10° ESE visible
29 Oct - 19:08:44 10° WSW 19:15:47 43° S 19:28:11 10° ESE visible
29 Oct - 21:28:48 10° WSW 21:37:36 29° SSW 21:51:20 10° SSE visible
